Location: Nied?wied?
(53.3665°N, 14.8184°E)
Time: 19:17:00
(UTC+00:00)

ISS - Pass Details

Date: 14 May 2021
Orbit: 417 x 422 km, 51.6° (Epoch: 14 June)

Event Time Altitude Azimuth Distance (km) Brightness Sun altitude
Rises 20:49:19 0° 221° (SW) 2,357 -0.1 -12.7°
Reaches altitude 10° 20:51:37 10° 208° (SSW) 1,498 -1.3 -12.9°
Maximum altitude 20:54:27 25° 151° (SSE) 889 -2.7 -13.1°
Enters shadow 20:54:47 25° 141° (SE) 901 -2.7 -13.1°
Exits shadow 20:56:44 13° 100° (E) 1,323 -1.6 -13.3°
Drops below altitude 10° 20:57:17 10° 94° (E) 1,506 -1.3 -13.3°
Sets 20:59:36 0° 81° (E) 2,375 -0.1 -13.5°
